Location: Newark
(5.8900°S, 42.6378°W)
Time: 12:39:08
(UTC+00:00)

Vanguard 1 Rocket - Pass Details

Date: 21 October 2019
Orbit: 651 x 4225 km, 34.3° (Epoch: 16 November)

Event Time Altitude Azimuth Distance (km) Brightness Sun altitude
Rises 09:12:41 0° 242° (WSW) 3,173 9.7 10.2°
Reaches altitude 10° 09:14:41 10° 246° (WSW) 2,403 9.1 10.7°
Maximum altitude 09:20:05 62° 327° (NNW) 1,228 8.1 12.1°
Drops below altitude 10° 09:29:46 10° 46° (NE) 4,189 11.4 14.4°
Sets 09:34:25 0° 48° (NE) 5,776 12.1 15.6°
